Willimantic, CT

8:14 AM EST on December 08, 2019 (GMT -0500)
Windham

Weather History for KIJD - October, 2019

Change the Weather History Date:

Wednesday, October 30, 2019

  Actual Average Record
Temperature  
Mean Temperature 58 °F -  
Max Temperature 63 °F 59 °F 78 °F (1989)
Min Temperature 54 °F 30 °F 20 °F (1962)
Degree Days  
Heating Degree Days 6    
Growing Degree Days 8 (Base 50)    
Moisture  
Dew Point 58 °F    
Average Humidity 99    
Maximum Humidity 100    
Minimum Humidity 90    
Precipitation  
Precipitation 0.07 in - - ()
Sea Level Pressure  
Sea Level Pressure 30.24 in    
Wind  
Wind Speed 1 mph ()    
Max Wind Speed 6 mph    
Max Gust Speed -    
Visibility 3.1 miles    
Events Fog , Rain    
Averages and records for this station are not official NWS values.
T = Trace of Precipitation, MM = Missing Value Source: Averaged Metar Reports

Daily Weather History Graph

Daily Weather History Graph

Search for Another Location

Airport or City:

Astronomy

Oct. 30, 2019 Rise Set
Actual Time 7:18 AM EDT 5:45 PM EDT
Civil Twilight 6:49 AM EDT 6:14 PM EDT
Nautical Twilight 6:16 AM EDT 6:47 PM EDT
Astronomical Twilight 5:44 AM EDT 7:19 PM EDT
Moon 9:59 AM EDT (10/30) 7:49 PM EDT (10/30)
Length of Visible Light 11h 25m
Length of Day
10h 27m
Waxing Crescent, 8% of the Moon is Illuminated
Oct 30
Waxing Crescent
Nov 4
First Quarter
Nov 12
Full
Nov 19
Last Quarter
Nov 26
New

Hourly Weather History & Observations

Time (EDT) Temp. Dew Point Humidity Pressure Visibility Wind Dir Wind Speed Gust Speed Precip Events Conditions
12:43 AM 54.0 °F 54.0 °F 100% 30.31 in 2.0 mi Calm Calm - 0.00 in Rain Light Rain
12:52 AM 54.0 °F 54.0 °F 100% 30.32 in 3.0 mi Calm Calm - 0.00 in Rain Light Rain
12:59 AM 54.0 °F 54.0 °F 100% 30.31 in 2.0 mi Calm Calm - 0.01 in Rain Light Rain
1:27 AM 54.0 °F 54.0 °F 100% 30.31 in 3.0 mi Calm Calm - 0.01 in   Overcast
1:41 AM 54.0 °F 54.0 °F 100% 30.31 in 5.0 mi Calm Calm - 0.01 in   Overcast
1:52 AM 54.0 °F 54.0 °F 100% 30.31 in 8.0 mi Calm Calm - 0.01 in   Overcast
2:52 AM 54.0 °F 54.0 °F 100% 30.30 in 8.0 mi Calm Calm - N/A   Overcast
3:35 AM 54.0 °F 54.0 °F 100% 30.30 in 1.8 mi Calm Calm - N/A   Overcast
3:52 AM 54.0 °F 54.0 °F 100% 30.30 in 1.0 mi Calm Calm - 0.00 in Rain Light Rain
4:04 AM 54.0 °F 54.0 °F 100% 30.29 in 0.8 mi Calm Calm - 0.00 in   Mist
4:52 AM 54.0 °F 54.0 °F 100% 30.29 in 0.2 mi Calm Calm - 0.00 in Fog Fog
5:52 AM 54.0 °F 54.0 °F 100% 30.30 in 0.2 mi Calm Calm - N/A Fog Fog
6:52 AM 55.0 °F 55.0 °F 100% 30.30 in 0.2 mi Calm Calm - N/A Fog Fog
7:52 AM 55.0 °F 55.0 °F 100% 30.32 in 0.2 mi Calm Calm - N/A Fog Fog
8:14 AM 55.0 °F 55.0 °F 100% 30.32 in 0.5 mi North - - 0.00 in Fog Fog
8:48 AM 55.4 °F 55.4 °F 100% 30.33 in 2.0 mi Calm Calm - 0.00 in   Overcast
8:52 AM 55.9 °F 55.9 °F 100% 30.33 in 3.0 mi Calm Calm - 0.00 in   Overcast
9:08 AM 55.9 °F 55.9 °F 100% 30.33 in 1.8 mi Calm Calm - N/A   Overcast
9:32 AM 57.0 °F 57.0 °F 100% 30.33 in 0.8 mi NNE 3.5 mph - N/A   Overcast
9:52 AM 57.0 °F 57.0 °F 100% 30.32 in 0.8 mi NE 3.5 mph - N/A   Overcast
10:02 AM 57.0 °F 57.0 °F 100% 30.32 in 1.0 mi North - - N/A   Overcast
10:12 AM 57.0 °F 57.0 °F 100% 30.32 in 3.0 mi NNE 3.5 mph - N/A   Overcast
10:52 AM 57.9 °F 57.9 °F 100% 30.31 in 1.8 mi Calm Calm - N/A   Overcast
11:03 AM 57.9 °F 57.9 °F 100% 30.31 in 2.0 mi Calm Calm - N/A   Overcast
11:28 AM 59.0 °F 59.0 °F 100% 30.31 in 3.0 mi Calm Calm - N/A   Overcast
11:52 AM 61.0 °F 59.0 °F 93% 30.30 in 9.0 mi Variable 3.5 mph - N/A   Overcast
12:08 PM 61.0 °F 59.0 °F 93% 30.29 in 7.0 mi SSE 5.8 mph - N/A   Overcast
12:15 PM 61.0 °F 59.0 °F 93% 30.30 in 5.0 mi Variable 3.5 mph - N/A   Overcast
12:49 PM 60.8 °F 59.0 °F 94% 30.29 in 5.0 mi Calm Calm - N/A   Overcast
12:52 PM 62.1 °F 59.0 °F 90% 30.29 in 7.0 mi Calm Calm - N/A   Overcast
1:52 PM 62.1 °F 60.1 °F 93% 30.26 in 7.0 mi Calm Calm - N/A   Overcast
2:52 PM 63.0 °F 60.1 °F 90% 30.24 in 10.0 mi Calm Calm - N/A   Overcast
3:42 PM 62.1 °F 61.0 °F 96% 30.23 in 3.0 mi ENE 3.5 mph - 0.00 in   Overcast
3:52 PM 62.1 °F 61.0 °F 96% 30.23 in 3.0 mi Calm Calm - 0.00 in   Overcast
3:59 PM 62.1 °F 61.0 °F 96% 30.22 in 2.5 mi Calm Calm - 0.00 in Rain Light Rain
4:08 PM 63.0 °F 61.0 °F 93% 30.23 in 4.0 mi ENE 3.5 mph - 0.00 in   Overcast
4:30 PM 62.1 °F 61.0 °F 96% 30.22 in 2.5 mi Calm Calm - 0.00 in Rain Light Rain
4:37 PM 62.1 °F 61.0 °F 96% 30.22 in 1.8 mi Calm Calm - 0.01 in Rain Light Rain
4:52 PM 62.1 °F 61.0 °F 96% 30.22 in 1.2 mi NE 3.5 mph - 0.02 in Rain Light Rain
5:44 PM 61.0 °F 61.0 °F 100% 30.20 in 3.0 mi NE 5.8 mph - 0.01 in   Overcast
6:12 PM 61.0 °F 60.1 °F 97% 30.21 in 3.0 mi North 3.5 mph - 0.00 in Rain Light Rain
6:30 PM 60.1 °F 60.1 °F 100% 30.20 in 2.5 mi Calm Calm - 0.01 in Rain Light Rain
6:39 PM 60.1 °F 60.1 °F 100% 30.20 in 2.0 mi NNE 4.6 mph - 0.01 in Rain Light Rain
6:49 PM 60.8 °F 60.8 °F 100% 30.20 in 2.0 mi NE 4.6 mph - 0.01 in Rain Light Rain
6:52 PM 60.1 °F 60.1 °F 100% 30.20 in 2.0 mi NE 4.6 mph - 0.01 in Rain Light Rain
7:06 PM 60.1 °F 60.1 °F 100% 30.20 in 2.5 mi NE 4.6 mph - 0.01 in Rain Light Rain
7:36 PM 60.1 °F 60.1 °F 100% 30.19 in 2.5 mi NE 3.5 mph - 0.02 in Rain Light Rain
7:46 PM 60.8 °F 60.8 °F 100% 30.18 in 3.0 mi NNE 4.6 mph - 0.02 in Rain Light Rain
7:52 PM 60.1 °F 60.1 °F 100% 30.18 in 4.0 mi NE 4.6 mph - 0.02 in   Overcast
7:59 PM 60.1 °F 60.1 °F 100% 30.18 in 3.0 mi NE 4.6 mph - N/A   Overcast
8:52 PM 60.1 °F 60.1 °F 100% 30.16 in 4.0 mi North 3.5 mph - 0.00 in   Overcast
9:06 PM 60.1 °F 60.1 °F 100% 30.15 in 2.0 mi NNE 4.6 mph - N/A   Overcast
9:37 PM 60.1 °F 60.1 °F 100% 30.14 in 4.0 mi NE 3.5 mph - N/A   Overcast
9:52 PM 60.1 °F 60.1 °F 100% 30.14 in 3.0 mi Calm Calm - 0.00 in Rain Light Rain
10:08 PM 61.0 °F 60.1 °F 97% 30.14 in 6.0 mi Calm Calm - 0.00 in   Overcast
10:52 PM 61.0 °F 61.0 °F 100% 30.12 in 2.0 mi Calm Calm - 0.01 in Rain Light Rain
11:03 PM 61.0 °F 61.0 °F 100% 30.12 in 5.0 mi SSE 3.5 mph - 0.00 in   Overcast
11:16 PM 61.0 °F 61.0 °F 100% 30.11 in 2.5 mi South 3.5 mph - 0.00 in Rain Light Rain
11:24 PM 61.0 °F 61.0 °F 100% 30.11 in 4.0 mi SSE 4.6 mph - 0.00 in   Overcast
11:40 PM 62.1 °F 62.1 °F 100% 30.10 in 1.8 mi South 5.8 mph - 0.00 in   Overcast
11:52 PM 62.1 °F 62.1 °F 100% 30.10 in 1.5 mi Variable 3.5 mph - 0.00 in   Overcast